Regional Weather Roundup
Issued by NWS Goodland, KS

Home | Current Version | Previous Version | Graphics & Text | Print | Product List | Glossary On
Versions: 1 2 3 4 5 6 7 8 9 10 11 12 13 14 15 16 17 18 19 20 21 22 23 24 25 26 27 28 29 30 31 32 33 34 35 36 37 38 39 40 41 42 43 44 45 46 47 48 49 50
000
ASUS43 KGLD 281208
RWRGLD

GOODLAND FORECAST AREA HOURLY WEATHER ROUNDUP
NATIONAL WEATHER SERVICE GOODLAND KS
600 AM MDT THU MAY 28 2015

...OFFICIAL OBSERVATIONS...

CITY           SKY/WX    TMP DP  RH WIND       PRES   REMARKS
GOODLAND KS    CLOUDY    59  58  96 SW18G25   30.00F
HILL CITY KS   CLOUDY    57  54  89 NE3       30.01F
IMPERIAL NEB   MOCLDY    52  51  97 SE6       30.02F
MCCOOK NEB     CLOUDY    54  52  93 SE5       30.02S
AKRON CO       PTCLDY    51  50  96 S7        30.02F
BURLINGTON CO  CLOUDY    59  57  93 S20G29    30.02S FOG
LIMON CO       FOG       47  47 100 S6        30.08S VSB<1/4
$$

...UNOFFICIAL OBSERVATIONS...

CITY           SKY/WX    TMP DP  RH WIND       PRES   REMARKS
GOVE KS          N/A     58  32  37 MISG        N/A
SHARON SPRINGS   N/A     57  56  96 MISG        N/A
KIT CARSON CO    N/A     56  54  92 MISG        N/A
$$


USA.gov is the U.S. government's official web portal to all federal, state and local government web resources and services.